Find Starlink 3054

NORAD ID: 49167 Int'l Des: 2021-082 Owner: SPXS Country: US Constellation: starlink operational
LEOCIRCULAR

实时位置

正在加载3D地球...

关于 Starlink 3054

正在加载描述...

即将过境

Passes for default location (London). Set your location on the main map for personalized predictions.

高度历史

Loading altitude history...

两行轨道根数

1 49167U 21082AP 26103.97991105 -.00000416 00000-0 -27026-4 0 9997
2 49167 70.0003 205.4667 0003163 271.4669 88.6127 14.98335183252463
Epoch: Apr 13, 2026 • Age: 23 hours

当前状态

高度 577.7 km
速度 7.57 km/s
星下点 35.84°N, 43.36°E
发射日期 Sep 14, 2021
运行时间 4.5 years
类型 internet

技术详情

分类 Payload
质量 297.00 kg
干质量 275.00 kg
总质量 297.00 kg
长度 0.20 m
直径 2.80 m
跨度 9.00 m
形状 Box + pan
制造商 SPXS
平台类型 Starlink
阶段状态 In Orbit
所有者/国家 SPXS/US

Most Searched